{"data":{"norad_id":56996,"epoch":"2026-05-25T04:36:08.917632Z","epoch_age_seconds":48625,"freshness":"FRESH","line1":"1 56996U 23084BY  26145.19176988  .00003536  00000+0  40601-3 0  9999","line2":"2 56996  98.1452 284.5620 0057430 171.5049 188.7151 14.85333992149966","mean_motion":14.85333992,"eccentricity":0.005743,"inclination_deg":98.1452,"raan_deg":284.562,"arg_perigee_deg":171.5049,"mean_anomaly_deg":188.7151,"bstar":0.00040601,"rev_number":14996,"period_min":96.947892376787,"perigee_km":572.39027508735,"apogee_km":652.68516492132,"semimajor_km":6990.6747200043,"source":"CELESTRAK","updated_at":"2026-05-25T13:37:59.792040Z"}}